IRIDIUM 33 DEB, 39778

Orbit data source: Space-Track

IRIDIUM 33 DEB, 39778 is space debris in LEO originally from a launch on Sun, 14 Sep 1997 UTC launched from the Tyuratam Missile And Space Complex (TTMTR). The debris from Iridium 33, an American commercial communications satellite, has been tracked extensively since its accidental collision with the defunct Russian satellite Cosmos 2251 in 2009. This event, occurring at high speed in low Earth orbit (LEO), generated thousands of pieces of space debris, significantly increasing the risk of further collisions. The Iridium 33 debris cloud has impacted space traffic management and orbital debris mitigation strategies, making it a subject of ongoing study in space situational awareness.

Loading next visibility...
Identifier
39778, 1997-051AAK
Orbit
LEO
Country
Flag of USUS
Related business
Manufacturer
Unknown
Mission
Spacecraft
Bus & Motor
Unknown
Mass
Unknown
Launch date (UTC)
1997-09-14 (29 years ago)
Launch vehicle
Unknown
Launch site
Tyuratam Missile And Space Complex (TTMTR)
Object type
Payload
Rocket body
Debris
Shape & HBR
Unknown shape, 0.071 m
Radar Cross Section
Medium (>0.1 m² and <1 m²)

Expand to show TLE details & history
Last TLE update: 22 hours ago

TLE from 22 hours ago
0 IRIDIUM 33 DEB
1 39778U 97051AAK 26266.34802553  .00001985  00000-0  44479-3 0  9992
2 39778  86.3716 279.4590 0008772 132.3430 227.8522 14.56169598648328
Epoch: 2026-09-23T08:21Z
TLE epoch observation values (Epoch: 2026-09-23T08:21:09.405Z)
Latitude
-0.00008°
Longitude
151.96937°
Altitude
712.824 km
Speed
7.497 km/s
True Right ascension
18h 37m 50s
True Declination
0° 00' 00"
Sunlit
Object was in daylight at epoch
Visualization orbit readout
Latitude
Unknown
Longitude
Unknown
Altitude
Unknown
Speed
Unknown
Apparent Right ascension
Unknown
Apparent Declination
Unknown
Sunlit
N/A
Visualization observer readout
Local Sidereal Time
23:56:39
Azimuth
Unknown
Elevation
Unknown
Doppler factor
Unknown
Orbital elements
Apogee altitude
708.714 km
Perigee altitude
696.292 km
Semi-major axis
7,080.64 km
Eccentricity
0.00088
Inclination
86.3716°
RAAN
279.459°
Arg. of periapsis
132.343°
True anomaly
227.77773°
Mean anomaly
227.8522°
Eccentric anomaly
227.81496°
Mean motion
3.64279 °/min
Orbital period
98.83 mins
BSTAR
0.00044479

Documentation

Showing up to 5 results
|